821  
SXUS52 KTAE 171818  
OSOTAE  
OSOTAE  
NORTH FLORIDA/SOUTH ALABAMA/SOUTHWEST GEORGIA WEATHER ROUNDUP  
NATIONAL WEATHER SERVICE TALLAHASSEE FLORIDA  
200 PM EDT TUE OCT 17 2017  
 
NOTE: "FAIR" INDICATES FEW OR NO CLOUDS BELOW 12,000 FEET WITH NO  
SIGNIFICANT WEATHER AND/OR OBSTRUCTIONS TO VISIBILITY.  
 
!FLZ017-115-028-034-025-171900   
..NORTH FLORIDA
 
 
 
CITY SKY/WX TMP DP RH WIND PRES REMARKS  
TALLAHASSEE MOSUNNY 74 57 55 NE10 30.16F  
APALACHICOLA CLOUDY 76 63 64 NE7 30.12F  
PERRY NOT AVBL  
CROSS CITY CLOUDY 75 62 63 NE14 30.16S  
JACKSONVILLE CLOUDY 71 61 70 N22 30.16R  

 
 
!FLZ112-006-005-002-011-171900   
..FLORIDA PANHANDLE
 
 
 
CITY SKY/WX TMP DP RH WIND PRES REMARKS  
MARIANNA SUNNY 75 48 38 NE16 30.18F  
BONIFAY NOT AVBL  
PANAMA CITY NW FAIR 76 56 49 NE12 30.14F  
TYNDALL AFB SUNNY 76 59 54 E12 30.13F  
TYND DRONE APT FAIR 76 59 55 NE14 30.13F  
DE FUNIAK SPR FAIR 72 51 46 NE10 30.19F  
EGLIN AFB MOSUNNY 76 53 43 NE8 30.16F  
DESTIN CLOUDY 76 54 46 E8 30.16F  
HURLBURT MOSUNNY 75 55 50 NE7 30.14F  
CRESTVIEW SUNNY 75 51 43 VRB7G18 30.19F  
PENSACOLA MOSUNNY 75 55 49 N7 30.17F  

 
 
!ALZ063-066-171900   
..SOUTH ALABAMA
 
 
 
CITY SKY/WX TMP DP RH WIND PRES REMARKS  
DOTHAN SUNNY 72 45 37 NE12 30.24F  
OZARK CAIRNS SUNNY 72 47 40 NE13 30.20F  
FT RUCKER HELI SUNNY 71 48 44 NE9 30.21F  
RUCKER HELI 3 FAIR 70 47 43 E12 30.21F  
RUCKER HELI 2 FAIR 71 46 41 E12 30.20F  
FLORALA APT SUNNY 72 50 45 E14 30.22F  
ANDALUSIA SUNNY 75 49 39 E12G17 30.20F  
TROY SUNNY 70 48 45 NE8 30.24F  
EUFALA FAIR 72 44 36 VRB5 30.22F  
MOBILE SUNNY 74 56 53 NE8 30.19F  

 
 
!GAZ120>161-171900   
..SOUTHWEST AND SOUTH CENTRAL GEORGIA
 
 
 
CITY SKY/WX TMP DP RH WIND PRES REMARKS  
THOMASVILLE FAIR 72 52 49 E10G17 30.21F  
BAINBRIDGE SUNNY 75 52 43 NE13 30.20F  
MOODY AFB MOSUNNY 71 52 50 NE8 30.19F  
VALDOSTA MOSUNNY 70 55 59 E9G16 30.19F  
MOULTRIE SUNNY 72 45 37 NE12G18 30.21F  
BLAKELY SUNNY 73 41 31 E13 30.22F  
ALBANY SUNNY 72 42 34 E14G20 30.24F  
TIFTON FAIR 69 41 36 NE10G18 30.22F  
FITZGERALD FAIR 71 44 38 NE8 30.25F  
CORDELE FAIR 73 36 25 NE15 30.25F  
AMERICUS FAIR 70 34 26 E10G17 30.26F  
HOMERVILLE FAIR 70 52 52 N5 30.21F  

 
 
!GMZ750-755-770-775-171900   
..COASTAL AND BUOY OBS
 
 
 
STATION/POSITION TIME TEMP WIND PRES VSBY WAVE  
AIR SEA DIR/SP/G HT/PER  
(UTC) (F) (DEG/KT/KT) (MB) (MI) (FT/S)  
KEATON BEACH 1800 71 40/ 11/ 15 1019.6F  
CEDAR KEY 1800 76 60/ 14/ 18 1018.9F  
C TOWER 1800 69 60/ 22/ 24 1020.0F  
APALACHICOLA BUO 1750 75 81 50/ 17/ 21 1017.6F 6/ 7  
PANAMA CITY BUOY 1750 76 82 60/ 21/ 25 1017.9F 6/ 7  
MOBILE BUOY 1800 76 82 60/ 16/ 19 1019.8  
ORANGE BCH AL BU 1750 70 79 70/ 16/ 21 1021.0F 5/ 7  

 
 
 
CLICK HERE TO GO TO PREVIOUS BULLETINS.

The Nexlab FL Page
The Nexlab GA Page
The Nexlab AL Page Main Text Page